TimeEDT,TemperatureF,Dew PointF,Humidity,Sea Level PressureIn,VisibilityMPH,Wind Direction,Wind SpeedMPH,Gust SpeedMPH,PrecipitationIn,Events,Conditions,WindDirDegrees,DateUTC
12:53 AM,50.0,46.9,89,29.90,10.0,Calm,Calm,-,N/A,,Clear,0,2012-10-20 04:53:00
1:53 AM,48.9,46.0,90,29.90,10.0,Calm,Calm,-,N/A,,Clear,0,2012-10-20 05:53:00
2:53 AM,48.9,46.0,90,29.91,10.0,Calm,Calm,-,N/A,,Clear,0,2012-10-20 06:53:00
3:53 AM,46.9,45.0,93,29.91,10.0,Calm,Calm,-,N/A,,Clear,0,2012-10-20 07:53:00
4:53 AM,46.9,44.1,90,29.91,10.0,South,3.5,-,N/A,,Clear,180,2012-10-20 08:53:00
5:53 AM,46.9,44.1,90,29.93,10.0,Calm,Calm,-,N/A,,Clear,0,2012-10-20 09:53:00
6:53 AM,46.9,44.1,90,29.95,10.0,Calm,Calm,-,N/A,,Clear,0,2012-10-20 10:53:00
7:53 AM,45.0,43.0,93,29.96,10.0,Calm,Calm,-,N/A,,Clear,0,2012-10-20 11:53:00
8:53 AM,51.1,46.9,86,29.97,10.0,Calm,Calm,-,N/A,,Clear,0,2012-10-20 12:53:00
9:53 AM,59.0,46.9,64,29.99,10.0,NW,3.5,-,N/A,,Clear,310,2012-10-20 13:53:00
10:53 AM,66.0,45.0,47,30.00,10.0,Variable,4.6,-,N/A,,Clear,0,2012-10-20 14:53:00
11:53 AM,70.0,41.0,35,29.98,10.0,WNW,10.4,-,N/A,,Clear,300,2012-10-20 15:53:00
12:53 PM,73.0,42.1,33,29.98,10.0,NW,11.5,16.1,N/A,,Clear,320,2012-10-20 16:53:00
1:53 PM,73.9,42.1,32,29.95,10.0,WNW,9.2,17.3,N/A,,Clear,290,2012-10-20 17:53:00
2:53 PM,75.0,43.0,32,29.94,10.0,West,10.4,17.3,N/A,,Clear,280,2012-10-20 18:53:00
3:53 PM,75.9,43.0,31,29.92,10.0,WNW,10.4,18.4,N/A,,Clear,290,2012-10-20 19:53:00
4:53 PM,75.0,44.1,33,29.91,10.0,Variable,4.6,-,N/A,,Clear,0,2012-10-20 20:53:00
5:53 PM,73.9,44.1,34,29.93,10.0,NW,8.1,-,N/A,,Clear,310,2012-10-20 21:53:00
6:53 PM,70.0,46.0,42,29.94,10.0,WNW,3.5,-,N/A,,Clear,300,2012-10-20 22:53:00
7:53 PM,62.1,50.0,65,29.95,10.0,Calm,Calm,-,N/A,,Clear,0,2012-10-20 23:53:00
8:53 PM,57.9,48.9,72,29.96,10.0,Calm,Calm,-,N/A,,Clear,0,2012-10-21 00:53:00
9:53 PM,55.9,48.9,77,29.98,10.0,Calm,Calm,-,N/A,,Clear,0,2012-10-21 01:53:00
10:53 PM,54.0,48.0,80,30.01,10.0,Calm,Calm,-,N/A,,Clear,0,2012-10-21 02:53:00
11:53 PM,53.1,48.0,83,30.01,10.0,Calm,Calm,-,N/A,,Clear,0,2012-10-21 03:53:00